Regional Weather Roundup
Issued by NWS Little Rock, AR

Home | Current Version | Previous Version | Graphics & Text | Print | Product List | Glossary On
Versions: 1 2 3 4 5 6 7 8 9 10 11 12 13 14 15 16 17 18 19 20 21 22 23 24 25 26 27 28 29 30 31 32 33 34 35 36 37 38 39 40 41 42 43 44 45 46 47 48 49 50
000
ASUS44 KLZK 020905
RWRLZK

WEATHER ROUNDUP FOR ARKANSAS
NATIONAL WEATHER SERVICE LITTLE ROCK AR
300 AM CST MON MAR 02 2015

NOTE: "FAIR" INDICATES FEW OR NO CLOUDS BELOW 12,000 FEET WITH NO
SIGNIFICANT WEATHER AND/OR OBSTRUCTIONS TO VISIBILITY.

ARZ001-003-010-029-021000-
NORTHWEST ARKANSAS

CITY           SKY/WX    TMP DP  RH WIND       PRES   REMARKS
FAYETTEVILLE   CLOUDY    29  26  89 E7        30.42F WCI  22
FORT SMITH     CLOUDY    37  32  82 N3        30.42F
HARRISON       MOCLDY    28  25  88 N3        30.43F
BENTONVILLE    PTCLDY    27  21  80 NE8       30.42F WCI  18
ROGERS         PTCLDY    26  23  88 NE8       30.42F WCI  18
SILOAM SPGS    PTCLDY    28  19  69 CALM      30.42F
HIGHFILL       PTCLDY    27  22  81 NE7       30.41F WCI  19
$$

ARZ004-005-016-021000-
NORTH CENTRAL ARKANSAS

CITY           SKY/WX    TMP DP  RH WIND       PRES   REMARKS
BATESVILLE     CLOUDY    34  27  75 N6        30.46F WCI  29
FLIPPIN        PTCLDY    30  21  69 N8        30.46S WCI  23
MTN HOME       PTCLDY    29  23  78 VRB5      30.45F WCI  24
$$

ARZ040-041-021000-
WEST CENTRAL ARKANSAS

CITY           SKY/WX    TMP DP  RH WIND       PRES   REMARKS
MENA           CLOUDY    37  36  93 NE5       30.37F
MOUNT IDA      CLOUDY    37  35  92 CALM      30.37S FOG
$$

ARZ009-017-025-026-028-021000-
NORTHEAST ARKANSAS

CITY           SKY/WX    TMP DP  RH WIND       PRES   REMARKS
CORNING        CLOUDY    32  27  80 N9        30.50R WCI  24
JONESBORO      CLOUDY    33  29  85 NE14G20   30.47R WCI  23
NEWPORT        CLOUDY    34  30  85 NE16      30.47F WCI  24
WALNUT RIDGE   CLOUDY    34  25  69 N9        30.48S WCI  26
BLYTHEVILLE    CLOUDY    33  29  85 NE17      30.47R WCI  22
$$

ARZ022-023-033-042-044-021000-
CENTRAL ARKANSAS

CITY           SKY/WX    TMP DP  RH WIND       PRES   REMARKS
LITTLE ROCK    CLOUDY    39  33  79 N9        30.42F
N LITTLE ROCK    N/A     37  36  98 NE8       30.41F
JACKSONVILLE   CLOUDY    37  34  88 N12       30.41F
SEARCY         CLOUDY    36  32  85 NE9       30.46R
HOT SPRINGS    CLOUDY    39  34  82 VRB5      30.39F
RUSSELLVILLE   CLOUDY    37  32  82 N6        30.41F
CLINTON        CLOUDY    36  30  80 N5        30.46S
$$

ARZ036-021000-
EAST ARKANSAS

CITY           SKY/WX    TMP DP  RH WIND       PRES   REMARKS
WEST MEMPHIS   CLOUDY    35  32  88 N16G24    30.43R WCI  25
$$

ARZ050-053-066-070-073-021000-
SOUTHWEST ARKANSAS

CITY           SKY/WX    TMP DP  RH WIND       PRES   REMARKS
ARKADELPHIA    CLOUDY    40  37  89 N12       30.40F
CAMDEN         CLOUDY    39  36  87 MISG      30.38S
TEXARKANA      CLOUDY    40  39  97 NE8       30.36S FOG
EL DORADO      CLOUDY    40  39  97 NE7       30.36F FOG
DE QUEEN       CLOUDY    41  37  86 NE5       30.34F
$$

ARZ056-057-069-021000-
SOUTHEAST ARKANSAS

CITY           SKY/WX    TMP DP  RH WIND       PRES   REMARKS
PINE BLUFF     CLOUDY    38  36  92 N12       30.40F
STUTTGART      CLOUDY    37  34  87 N17       30.42R
MONTICELLO     CLOUDY    39  37  92 VRB7      30.37F FOG

$$




USA.gov is the U.S. government's official web portal to all federal, state and local government web resources and services.